{"data":{"norad_id":60991,"intl_designator":"2024-158B","name":"STARLINK-11289 [DTC]","alt_names":[],"object_type":"PAYLOAD","status":"ACTIVE","operator":null,"country":"US","launch_date":"2024-09-05","launch_site_code":"AFETR","launch_vehicle":null,"mission":null,"orbit_class":"UNKNOWN","rcs_meters":null,"size_class":null,"mass_kg":null,"dimensions":null,"purposes":["comms"],"wikipedia_slug":null,"has_3d_model":false,"image_url":null,"decayed_at":null,"tle_current":{"epoch":"2026-09-21T16:52:18.919200Z","epoch_age_seconds":84967,"freshness":"FRESH","line1":"1 60991U 24158B   26264.70299675 -.00000906  00000+0 -26173-5 0  9990","line2":"2 60991  53.1587  34.7784 0001216  92.2407 267.8751 15.69704955118381","mean_motion":15.69704955,"eccentricity":0.0001216,"inclination_deg":53.1587,"raan_deg":34.7784,"arg_perigee_deg":92.2407,"mean_anomaly_deg":267.8751,"bstar":-2.6173e-6,"rev_number":11838,"period_min":91.736985056532,"perigee_km":358.92186132975,"apogee_km":360.5605133049,"semimajor_km":6737.8781873173,"source":"CELESTRAK","updated_at":"2026-09-22T09:00:49.293975Z"}}}